This is the latest recevied weather packets stored in our database for station/object PY2ELM-13. If no packets are shown the sender has not sent any weather packets the latest 10 day(s).
| Time | Temp. | Humidity | Pressure | Rain* | Wind** | Luminosity | Snow |
|---|---|---|---|---|---|---|---|
| 1788094428 | 28.33° C | 52% | 1023.7 hPa | - | - | - | - |
| 1788093828 | 27.78° C | 52% | 1023.8 hPa | - | - | - | - |
| 1788093228 | 27.78° C | 53% | 1023.9 hPa | - | - | - | - |
| 1788092628 | 27.78° C | 53% | 1023.7 hPa | - | - | - | - |
| 1788092028 | 27.22° C | 54% | 1023.9 hPa | - | - | - | - |
| 1788091428 | 26.67° C | 55% | 1023.9 hPa | - | - | - | - |
| 1788090828 | 26.67° C | 55% | 1024 hPa | - | - | - | - |
| 1788090228 | 26.67° C | 56% | 1023.8 hPa | - | - | - | - |
| 1788089628 | 26.11° C | 57% | 1023.9 hPa | - | - | - | - |
| 1788089028 | 26.11° C | 58% | 1024.1 hPa | - | - | - | - |
| 1788088428 | 25.56° C | 59% | 1024.1 hPa | - | - | - | - |
| 1788087828 | 25.56° C | 59% | 1024 hPa | - | - | - | - |
| 1788087228 | 25.56° C | 61% | 1023.9 hPa | - | - | - | - |
| 1788086628 | 25° C | 61% | 1023.7 hPa | - | - | - | - |
| 1788086028 | 25° C | 61% | 1023.8 hPa | - | - | - | - |
| 1788085428 | 25° C | 61% | 1023.7 hPa | - | - | - | - |
| 1788084828 | 25° C | 60% | 1023.6 hPa | - | - | - | - |
| 1788084228 | 25° C | 60% | 1023.6 hPa | - | - | - | - |
| 1788083628 | 25° C | 60% | 1023.5 hPa | - | - | - | - |
| 1788083028 | 25° C | 61% | 1023.4 hPa | - | - | - | - |
| 1788082428 | 25° C | 61% | 1023.3 hPa | - | - | - | - |
| 1788081828 | 25° C | 61% | 1023.2 hPa | - | - | - | - |
| 1788081228 | 24.44° C | 61% | 1023 hPa | - | - | - | - |
| 1788080628 | 25° C | 60% | 1022.9 hPa | - | - | - | - |
| 1788080028 | 25° C | 59% | 1022.6 hPa | - | - | - | - |
* Rain since midnight (hover to see other rain measurements)
** Current wind speed in m/s (hover to see current wind gust speed)